GSAT-16 (40332 NORAD) Tracking and Keplerian Element Data

This shows tracking and keplerian element data for the satellite.

Feedback or suggestion? Click here.




ElementValue
Catalog40332
NameGSAT-16
Epoch Orbit1594
Epoch Day113.53243744
Epoch Year2019
RAAN93.1274
Inclination0.0905
Eccentricity0.00072
Argument of Perigee340.896
Mean Anonmoly23.9963
Mean Motion1.00271959
Decay Rate6.9E-07
L11 40332U 14078A 19113.53243744 .00000069 00000-0 00000-0 0 9994
L22 40332 0.0905 93.1274 0007200 340.8960 23.9963 1.00271959 15948

Live tracking and technical data element details for GSAT-16 (NORAD 40332). GSAT-16 can be tracked NOW for your location showing map with azimuth and elevation plus other details from your city location.

Track the satellite on the map from your city or location and see movement details for azimuth, elevation, latitude, longitude, range, height, and movement on the map or in text.







IsCatalogInMostPopularTable: catalog: 40332, numindb: 194
Update: records affected: 1



GetName: 40332 GSAT-16

Hit Count: updated at: Wed, 24 Apr 2019 18:21:34 GMT